Theta_e
351 350 350 350 350 350 349 348 346 345 344 342 340 339 338 338 338 338 338 338 338 337 338 339 340 342 342 343 342 340 340 341 341 340 340 343 344 345 345 345 345 345 345 347 348 349 349 347 346 345 344 343 342 341 341 340 341 343 344 344 344 343 344 341 336 332 330 331 334 333 332 334 338 338 336 333 335 338 337 336 335 332 331 330 329
351 351 351 351 351 350 350 349 348 346 345 344 342 340 339 338 338 339 340 340 338 337 337 338 339 340 341 342 341 340 340 340 340 339 339 340 342 342 342 343 343 343 344 347 349 349 349 348 347 346 344 343 342 341 341 339 340 342 343 344 343 344 341 333 328 329 331 334 334 333 334 337 338 337 336 336 337 338 337 336 335 332 331 330 327
351 351 351 351 351 351 350 350 348 346 345 345 344 343 342 341 340 340 340 341 339 338 338 338 338 339 340 341 341 340 340 341 340 340 340 340 340 341 341 342 342 342 344 348 350 350 350 349 348 347 345 343 342 341 339 337 338 340 342 343 343 344 338 328 329 331 333 335 334 334 335 337 338 338 337 338 337 337 336 335 334 332 331 329 327
350 351 351 351 351 351 351 350 349 348 347 346 345 345 344 343 342 342 342 342 341 339 338 338 338 339 340 341 341 340 341 342 341 341 341 341 340 341 341 342 342 342 344 348 350 350 350 350 349 348 345 343 341 340 338 336 337 339 341 342 343 343 335 327 330 332 332 335 334 334 334 336 338 338 338 338 338 337 336 334 333 332 331 330 328
350 350 351 351 351 351 350 349 348 349 348 346 345 344 343 343 342 343 343 343 342 340 339 338 339 339 340 340 341 341 341 342 342 342 342 342 341 341 342 342 342 343 344 347 349 350 350 350 349 348 345 343 341 340 337 336 337 339 341 342 343 343 334 327 330 332 334 334 333 334 335 335 337 338 338 338 338 338 336 334 333 332 331 330 329
350 350 350 350 350 350 350 349 349 348 346 343 343 342 342 342 342 343 344 343 343 341 339 338 339 339 339 340 340 340 340 341 341 342 342 341 340 340 341 342 343 343 345 346 348 349 349 350 350 348 345 343 342 341 339 337 338 339 341 342 344 343 334 327 329 332 334 334 333 335 336 335 336 337 338 338 337 338 337 334 333 332 331 331 330
350 350 350 350 350 350 350 349 348 345 341 340 340 342 342 343 343 344 344 344 343 341 339 338 338 339 338 338 339 339 339 339 339 340 341 341 340 340 340 341 342 343 344 345 347 348 348 350 350 348 346 343 342 342 340 339 339 340 342 343 343 343 334 327 329 331 334 335 334 336 337 336 335 336 337 337 337 338 337 335 333 332 332 331 331
350 350 350 350 350 350 349 347 345 341 338 338 339 339 341 343 344 344 343 344 344 342 342 340 339 339 339 339 339 338 339 339 339 339 339 340 340 339 339 340 342 342 342 343 345 346 347 349 349 348 345 343 341 341 340 340 340 341 342 342 342 342 334 327 329 331 333 335 335 336 336 336 335 334 336 336 336 337 336 334 333 332 332 332 332
349 350 349 350 349 349 347 344 342 339 338 338 336 336 337 340 342 344 344 345 345 345 344 343 342 341 341 340 339 338 338 339 340 340 339 338 339 339 340 340 342 342 341 342 343 344 345 346 348 348 346 343 340 339 339 340 341 342 342 341 341 340 334 328 328 331 333 335 336 336 336 335 335 334 334 335 336 336 336 335 334 333 333 333 333
349 349 349 349 348 345 344 343 342 341 342 339 336 335 335 338 342 345 345 345 346 346 346 346 345 344 343 341 339 338 338 339 340 340 340 339 339 339 340 340 342 343 343 343 343 343 344 345 347 348 347 345 342 339 339 341 342 342 341 340 340 339 335 329 328 329 332 334 336 336 335 334 333 331 331 333 336 337 336 336 335 335 334 334 334
348 348 348 348 347 345 345 346 345 345 347 345 342 340 338 339 342 344 345 345 346 347 347 347 347 347 346 344 342 340 339 339 340 340 339 339 339 340 339 340 341 343 343 344 344 344 344 345 346 348 347 347 344 339 340 341 342 341 340 340 339 337 334 331 329 328 329 332 334 335 335 333 331 330 330 332 335 337 337 337 336 335 335 335 334
347 348 348 348 348 348 347 347 347 347 349 349 347 345 343 342 342 344 345 345 347 347 347 348 348 348 348 347 346 343 341 340 340 340 339 340 340 340 340 340 341 342 343 344 343 344 345 345 346 348 348 347 345 341 340 341 341 341 340 339 337 335 332 330 330 328 326 328 331 333 334 333 332 332 333 334 335 336 337 337 335 334 334 335 334
347 347 348 348 347 348 348 347 347 348 348 348 348 346 345 344 343 344 345 345 346 347 347 348 348 348 348 348 347 346 345 344 342 342 342 341 341 341 341 341 341 342 342 343 343 344 345 346 346 347 347 347 346 343 341 342 342 341 340 338 336 333 331 328 328 328 325 325 327 330 332 332 332 334 334 334 334 335 335 335 333 333 333 333 333
347 347 347 348 347 347 347 346 346 347 347 347 347 347 346 345 345 344 344 344 346 347 347 348 348 348 347 347 347 348 347 346 345 344 344 344 343 343 342 342 342 342 342 342 342 345 346 346 346 347 347 348 347 345 343 342 342 341 339 337 335 334 331 327 325 325 323 322 323 326 329 331 332 334 334 334 334 333 334 333 333 333 333 333 333
346 347 347 347 347 346 346 346 345 345 345 345 346 347 347 346 345 344 343 344 346 347 347 348 348 348 348 348 348 348 348 347 346 344 344 344 344 344 343 343 343 342 342 342 342 345 347 347 347 346 347 348 348 346 344 343 342 340 339 336 335 334 330 327 324 323 320 319 319 322 325 328 331 333 334 335 334 334 334 334 333 333 333 333 333
345 346 346 346 347 346 347 346 346 345 344 345 345 345 346 346 345 344 342 344 345 346 347 347 348 348 348 349 349 348 348 348 347 346 344 344 344 344 344 343 343 343 343 342 342 344 347 347 347 346 346 347 347 346 344 343 342 340 338 336 334 333 330 327 325 324 320 316 316 319 321 325 329 332 333 335 335 334 334 334 334 333 332 332 333
344 345 345 346 346 346 347 346 346 346 345 345 344 343 345 344 345 345 343 344 345 346 347 347 348 348 348 349 349 350 349 349 348 347 346 346 345 345 344 344 344 343 343 342 341 343 346 347 347 346 346 345 346 345 343 343 342 339 337 336 335 332 329 327 325 324 321 317 315 316 319 322 327 330 331 333 335 334 334 334 334 332 332 332 332
342 344 344 345 346 345 346 346 346 346 345 344 343 342 344 344 344 344 343 343 344 345 346 347 348 348 348 348 349 349 350 349 349 348 348 348 347 345 345 344 343 343 343 343 342 342 345 347 347 347 346 345 344 343 342 343 342 339 337 336 336 334 331 327 325 323 320 318 316 316 318 321 325 328 329 330 332 333 334 334 334 333 332 333 332
339 342 343 344 345 345 346 346 345 346 345 344 343 343 344 344 344 344 343 341 342 344 346 347 348 348 347 347 348 349 349 349 349 349 349 349 347 346 345 344 343 342 343 342 342 342 343 346 347 347 346 344 344 343 342 343 342 339 337 337 337 336 333 329 326 323 321 319 318 316 317 319 323 327 329 330 330 332 334 334 334 333 333 333 333
338 340 342 342 344 345 345 346 345 346 346 345 345 345 345 345 345 345 344 343 345 346 347 348 348 348 348 348 348 348 349 349 350 350 349 349 348 346 345 344 343 342 342 342 343 343 342 344 345 347 347 345 344 343 343 342 342 340 337 337 338 336 334 331 328 325 322 321 320 318 317 319 322 327 329 329 330 331 334 334 334 334 334 333 333
338 338 340 341 342 344 344 345 345 345 345 346 346 346 346 345 346 345 345 345 346 346 347 348 348 349 349 348 348 348 348 349 349 350 349 349 348 346 346 345 343 342 341 341 342 342 342 342 344 345 346 346 343 343 343 342 341 340 337 337 338 336 333 331 329 327 324 322 321 320 319 319 321 324 327 328 330 332 333 334 334 334 334 333 333
339 338 339 340 341 342 343 344 345 345 346 346 346 346 346 346 346 346 346 345 344 344 345 347 348 349 349 348 349 349 348 348 349 349 349 349 348 347 347 346 344 341 340 340 340 340 340 341 343 344 346 346 344 342 342 342 341 340 338 337 337 336 333 331 329 326 324 323 322 320 320 319 320 321 323 327 330 332 333 333 334 334 334 334 333
340 339 338 339 340 341 343 344 345 345 345 346 346 346 346 346 347 346 347 345 344 344 344 346 348 348 349 349 349 349 348 349 349 349 349 349 349 348 348 347 345 342 340 339 339 339 338 340 342 344 345 345 344 341 341 342 341 340 339 336 336 336 334 331 328 325 324 324 322 321 321 320 320 321 321 325 329 332 333 333 333 333 334 334 333
340 339 339 339 339 340 342 343 345 345 345 346 346 346 346 346 347 347 347 345 344 344 345 346 347 348 349 349 349 349 349 349 350 349 349 349 349 349 348 348 347 345 342 338 337 338 337 338 340 343 345 345 344 341 340 341 342 341 340 337 336 337 336 333 330 326 324 323 322 321 321 321 321 321 321 323 328 331 332 333 333 333 334 334 333
339 339 339 339 339 340 341 342 344 344 345 346 345 346 346 346 347 347 346 346 345 346 346 347 347 348 349 349 349 349 349 350 350 350 350 349 349 349 349 349 348 347 345 340 337 336 336 337 338 341 343 345 345 343 340 339 341 342 341 338 336 336 337 336 333 328 325 323 321 320 321 321 321 321 322 323 326 330 331 332 332 332 332 332 332
338 338 339 339 339 340 340 340 342 343 345 345 345 346 346 346 347 346 346 346 346 346 347 347 348 349 349 348 349 349 349 349 349 350 350 349 349 349 349 349 349 348 346 342 338 336 335 337 338 340 342 343 344 344 341 339 340 341 341 339 337 337 337 338 336 332 328 324 321 320 321 321 321 321 322 324 327 330 330 331 331 331 331 332 333
337 338 338 339 340 340 340 340 341 342 344 344 345 345 346 346 346 346 347 347 347 347 347 348 348 349 349 349 348 348 349 349 350 350 350 349 350 350 350 349 349 348 346 341 337 335 335 336 338 339 341 342 343 344 343 341 340 340 341 341 339 337 337 338 338 336 333 328 322 320 321 321 321 321 322 324 328 330 331 331 331 331 331 332 332
336 338 338 339 339 340 341 340 340 341 342 344 345 345 345 345 346 346 347 347 347 347 348 348 348 349 349 349 348 348 349 349 349 349 350 350 350 350 350 350 350 348 345 340 336 335 336 336 338 340 340 341 342 343 344 344 343 342 342 341 340 338 338 339 339 339 337 332 326 323 321 321 321 321 322 324 327 330 332 332 332 331 331 331 332
333 335 337 339 339 340 341 340 341 341 341 343 344 345 345 346 346 346 347 347 347 347 348 348 348 348 349 349 349 349 349 350 350 350 350 351 350 350 351 350 350 349 345 339 336 335 336 337 338 339 340 341 342 342 343 344 344 344 343 342 341 340 339 339 340 341 339 336 332 326 321 322 323 322 322 323 325 328 330 331 332 332 331 332 333
330 331 334 336 338 339 340 340 342 341 341 342 343 344 345 345 346 346 346 347 347 348 348 348 348 348 349 349 350 350 350 350 350 351 351 351 351 351 351 351 350 349 346 342 339 337 337 338 339 340 341 341 342 342 342 343 344 345 344 343 342 341 340 340 340 342 341 340 337 329 322 322 325 324 323 323 324 326 328 330 331 332 332 333 333
330 330 332 333 336 338 339 340 341 341 342 342 342 343 344 345 346 346 346 347 347 348 348 348 348 348 349 350 350 350 351 350 350 351 351 351 351 351 351 351 351 350 348 346 343 339 337 338 340 341 342 343 343 342 342 342 344 345 345 344 343 342 342 341 341 342 342 342 340 333 325 322 325 326 324 324 324 325 327 329 331 332 333 334 333
330 331 333 333 334 337 339 340 340 341 342 342 343 343 343 344 345 345 346 347 347 348 348 348 349 350 350 350 351 351 351 351 351 350 351 351 351 351 352 351 351 350 350 349 346 341 338 338 340 342 343 344 343 343 343 342 343 344 345 345 344 344 344 343 342 343 343 343 342 339 333 326 325 328 326 324 325 325 324 327 329 332 334 334 333
330 333 336 336 335 335 337 338 339 341 341 342 342 343 343 344 344 344 346 347 347 348 348 349 350 350 350 350 351 351 351 351 351 351 351 352 351 352 352 351 351 351 351 351 348 344 341 339 339 340 343 344 344 343 344 344 344 345 345 345 344 345 345 344 344 344 344 343 343 343 340 332 328 329 327 326 327 326 324 324 328 331 333 333 334
332 337 340 340 338 336 336 337 339 340 340 342 343 342 343 343 344 345 346 347 347 348 348 349 350 350 351 351 351 352 352 351 352 351 352 352 351 352 352 352 352 351 351 351 350 348 346 343 340 339 340 341 342 343 344 345 346 346 346 346 345 345 346 346 345 345 346 345 344 343 343 338 332 329 328 328 327 326 324 325 327 330 331 332 334
337 340 340 340 340 338 336 337 338 339 341 342 343 343 344 344 345 345 346 347 348 348 348 349 350 351 351 352 352 352 352 352 352 352 353 352 352 352 352 352 352 351 351 352 352 351 349 346 343 342 341 340 340 341 344 346 347 347 347 348 346 346 348 348 347 346 347 347 346 344 343 341 335 330 329 329 327 326 326 327 329 330 331 332 334
339 340 340 340 341 340 339 338 338 339 341 342 343 343 344 345 345 346 346 347 348 348 349 349 350 351 352 352 353 353 353 353 353 353 353 353 353 353 352 353 352 351 352 352 352 352 351 350 348 347 346 342 340 343 346 348 349 349 349 349 348 348 349 349 348 348 348 347 347 345 344 342 338 334 330 330 330 329 329 332 332 331 331 333 333
340 340 341 340 340 340 341 340 339 339 340 341 342 343 344 345 345 346 347 348 348 348 349 349 350 351 351 351 352 353 353 353 353 354 354 353 353 353 353 353 353 352 352 352 352 353 353 352 351 350 349 346 345 347 348 349 350 350 350 350 350 349 349 349 348 347 347 346 345 345 344 343 341 337 333 331 331 331 332 334 333 332 332 334 334
341 340 341 340 341 341 341 341 341 340 340 341 342 343 344 345 346 346 347 348 348 348 349 350 350 349 350 351 352 353 354 354 354 354 354 354 354 354 353 353 353 352 352 352 353 353 354 354 354 353 351 349 349 350 350 350 350 351 351 351 350 349 350 350 348 347 345 345 345 344 343 341 339 338 334 332 332 332 332 332 331 332 334 335 335
344 342 340 339 340 341 342 343 343 342 341 341 342 343 344 345 346 347 347 348 348 348 348 349 348 349 350 351 352 353 354 354 354 353 353 353 353 354 354 354 354 353 353 354 354 354 354 355 355 354 353 353 352 352 351 351 351 351 351 351 350 350 350 350 350 348 347 347 345 343 342 341 340 338 335 333 333 333 332 330 330 333 335 336 334
349 346 343 340 339 339 342 344 345 345 344 343 343 343 345 345 346 346 347 347 347 347 347 348 348 349 351 351 352 353 353 353 353 352 353 353 353 354 355 355 354 355 355 355 356 355 355 355 355 355 355 354 354 353 352 352 352 351 351 351 351 351 350 350 350 349 348 347 345 344 343 342 340 338 336 335 334 332 330 329 331 334 336 335 334
346 346 345 344 342 341 342 344 346 346 346 345 345 344 345 346 347 347 347 346 346 346 347 348 349 350 351 351 352 352 352 352 353 353 354 355 355 355 356 356 356 355 356 356 356 356 356 356 356 356 356 355 355 354 353 353 352 351 351 351 351 351 350 349 349 348 347 346 345 344 343 341 340 338 337 336 334 331 328 329 332 335 335 334 333
341 342 344 347 347 345 344 344 344 346 346 346 346 345 345 346 346 347 347 346 347 349 349 350 351 351 351 351 351 351 352 352 354 355 355 355 356 356 356 356 356 356 356 356 357 357 357 357 357 356 356 356 355 355 354 353 353 352 352 352 352 351 350 349 348 346 345 344 344 343 341 341 340 339 338 336 333 328 328 331 334 334 333 332 331
337 338 340 345 348 350 351 349 347 346 346 347 347 347 347 347 347 347 347 347 348 349 349 350 351 352 352 352 352 351 352 353 354 355 355 355 356 357 357 357 357 356 357 357 357 357 357 357 357 357 356 356 356 355 355 354 353 353 352 352 353 352 351 348 347 345 343 343 343 341 338 339 339 338 338 336 330 327 330 333 334 332 330 330 330
333 335 338 340 343 348 353 355 355 353 350 349 349 349 348 348 348 348 348 348 348 349 349 350 350 351 351 351 352 352 353 353 354 354 355 355 355 356 357 357 357 357 357 357 357 357 358 357 357 357 356 356 356 355 355 354 354 353 353 353 353 353 350 347 345 343 342 342 341 338 336 336 337 338 337 333 328 329 333 333 331 330 329 329 328
333 334 336 338 340 343 346 350 355 357 357 356 355 353 352 351 350 349 349 349 349 349 349 349 349 350 350 350 350 351 352 352 353 354 355 355 355 356 357 356 357 357 357 357 356 357 357 358 357 357 357 356 356 355 355 355 354 354 353 353 353 352 348 344 343 343 342 341 338 336 335 334 335 335 333 329 330 333 334 331 329 329 329 327 327
332 331 332 335 339 340 341 344 348 352 355 358 359 359 358 356 355 354 353 352 351 350 351 351 350 350 351 351 351 351 351 352 353 354 355 355 355 356 356 356 357 357 357 358 357 356 357 357 357 357 357 356 355 355 355 355 354 354 353 353 353 350 345 343 343 342 341 340 337 335 334 333 332 331 329 329 331 333 331 329 329 328 328 327 327
335 333 332 333 333 335 337 340 342 344 347 350 354 357 359 360 359 359 359 357 356 353 352 352 353 352 352 352 352 352 352 353 353 353 354 355 356 356 357 356 357 357 357 358 358 357 357 357 357 357 357 356 355 355 355 355 354 354 353 353 352 350 346 343 341 340 341 339 337 334 333 332 330 329 330 331 332 330 329 328 328 328 327 327 327
340 339 337 337 335 336 337 338 340 342 342 344 346 349 351 353 356 358 360 361 360 358 355 354 353 353 353 354 354 354 354 353 353 354 354 354 355 356 356 356 356 356 357 357 357 357 357 357 357 357 356 355 354 354 354 354 354 353 353 352 350 348 346 342 340 340 341 339 335 333 332 331 330 330 331 332 331 329 328 328 328 327 327 326 326
343 343 342 341 342 342 342 341 342 342 342 343 344 344 345 346 347 350 353 356 359 360 359 357 355 354 353 353 353 354 354 354 354 354 354 354 355 355 355 355 355 355 355 356 356 356 356 357 357 356 355 355 354 354 354 353 353 352 352 350 347 345 343 340 339 340 340 336 334 333 333 332 331 330 330 330 329 328 328 328 328 327 326 326 325
346 345 344 344 344 344 345 345 345 344 344 344 343 343 344 344 345 345 347 349 353 355 357 358 357 356 354 353 353 353 353 353 354 354 354 355 354 355 355 355 356 356 356 356 356 356 356 356 356 356 356 355 355 356 354 353 352 350 349 348 345 342 340 337 337 338 337 334 333 334 334 333 332 331 330 329 329 328 328 328 327 327 326 325 323
347 347 346 345 343 342 342 342 342 341 340 340 341 342 343 344 344 345 346 346 347 349 350 352 354 354 355 355 355 354 354 353 353 353 354 354 355 355 355 355 356 357 357 357 357 357 357 356 356 356 355 353 354 355 354 352 352 350 347 345 343 340 338 337 337 337 336 334 334 335 334 334 333 331 330 329 328 327 327 327 327 326 326 323 321
Wind_Speed
41 40 42 42 42 41 40 39 37 37 35 35 35 35 35 34 35 35 34 33 33 33 33 33 32 31 30 30 29 28 27 26 25 24 24 23 23 22 21 19 17 16 14 13 13 12 12 12 12 12 13 13 13 13 11 10 9 9 10 12 12 11 10 10 11 10 7 7 9 8 8 7 6 6 6 5 5 5 2 2 2 4 6 7 6
34 37 41 41 42 42 41 41 40 39 37 36 36 35 35 35 35 35 34 34 34 34 34 34 33 32 31 30 29 28 27 27 26 25 25 24 24 23 22 20 19 17 15 14 13 12 12 12 12 12 13 13 13 13 12 11 11 10 11 13 13 11 10 10 8 5 4 8 9 8 7 6 6 5 4 4 6 5 4 2 0 2 5 6 7
33 38 42 42 43 43 43 43 42 40 39 38 37 36 36 36 36 36 35 35 35 35 35 35 33 31 30 29 28 28 27 27 26 25 25 25 24 23 22 21 20 19 17 16 14 12 12 12 12 13 13 14 14 13 13 12 12 12 12 13 13 11 10 9 7 4 5 8 8 7 7 6 5 5 6 6 6 5 5 3 1 1 3 6 7
37 39 42 43 43 44 45 45 44 43 41 40 39 38 38 37 37 37 36 36 36 36 36 35 33 31 30 29 28 28 27 27 27 27 27 26 25 24 22 21 20 20 19 18 16 14 13 13 13 14 14 14 13 13 13 13 13 13 13 13 12 11 10 9 7 5 6 7 8 7 6 6 5 7 8 7 6 5 6 4 2 1 2 4 5
40 41 43 44 45 46 47 47 46 45 44 42 40 39 39 39 38 37 37 37 37 37 36 35 34 33 32 31 30 30 29 29 30 30 29 28 27 25 23 21 20 21 21 20 18 16 15 14 14 15 15 14 14 14 13 13 13 13 14 13 12 11 10 9 8 7 7 7 8 7 6 6 6 8 9 8 7 6 7 6 4 2 1 2 3
40 42 44 46 48 49 49 48 47 47 45 43 41 40 39 39 39 38 38 38 37 37 36 36 36 35 35 35 35 34 34 34 33 32 30 29 27 25 23 22 21 21 21 21 20 18 17 15 14 15 16 16 15 15 14 14 15 14 14 14 12 11 10 10 9 9 8 8 9 9 7 6 6 8 10 9 8 8 9 8 5 4 2 1 1
41 41 42 45 48 49 50 50 50 48 45 42 42 41 40 39 39 39 39 38 38 37 36 37 37 37 37 37 36 36 36 35 33 31 30 29 27 26 24 23 22 22 21 21 21 19 18 17 16 16 17 17 16 16 16 15 15 14 14 14 12 11 12 11 11 11 10 9 10 11 10 8 7 8 10 10 9 9 11 10 7 7 5 3 2
43 43 43 45 48 50 52 52 52 49 45 43 43 41 41 40 39 39 39 39 38 37 36 37 38 39 39 38 38 38 37 35 32 31 30 29 28 27 26 25 24 23 21 21 21 20 19 18 17 17 16 16 16 17 16 16 15 15 15 14 12 12 13 12 12 12 12 11 11 12 12 12 10 9 10 10 10 9 10 11 10 9 8 6 4
44 45 46 47 49 51 53 53 52 49 47 45 43 42 42 42 41 40 40 39 38 37 37 37 38 38 39 39 40 39 38 36 34 32 31 30 29 27 27 26 25 24 22 21 21 20 20 19 18 18 17 16 16 17 17 16 16 15 14 14 13 13 13 13 14 14 14 13 12 12 12 13 12 12 11 11 11 11 10 11 11 11 11 9 7
44 46 47 49 51 52 53 53 53 52 51 48 44 43 43 43 43 43 42 41 39 38 38 38 38 37 38 39 40 40 39 37 36 35 34 32 30 28 27 26 26 25 23 22 22 22 21 20 19 19 17 16 17 17 17 16 15 15 14 13 13 13 13 14 15 15 15 14 13 12 12 12 13 13 13 12 12 12 12 11 10 11 12 11 9
45 46 47 48 50 51 52 53 54 53 52 51 49 47 46 45 45 45 44 43 42 41 40 40 39 38 38 38 39 39 39 39 38 37 36 34 32 29 27 26 26 26 25 24 24 23 23 22 21 20 18 17 17 18 17 16 15 14 14 13 13 13 13 14 15 15 14 14 14 13 12 12 12 12 12 12 12 13 13 12 11 11 12 12 11
45 45 47 47 48 49 49 51 53 51 50 51 51 50 49 48 47 46 46 45 45 44 43 42 41 40 39 38 38 38 38 38 38 37 36 34 32 30 29 27 27 27 26 26 25 25 24 24 23 21 20 18 18 18 17 16 15 15 14 13 13 13 14 14 14 13 13 14 14 13 13 13 12 11 10 10 11 12 12 12 10 9 10 10 11
45 46 47 48 49 50 49 51 52 51 50 51 51 51 51 50 49 48 48 47 47 46 46 45 43 42 40 39 39 38 38 38 37 36 35 33 31 31 30 28 27 27 27 27 26 26 26 25 24 23 21 19 18 18 17 16 16 15 14 14 13 14 14 14 13 12 11 12 13 14 14 14 13 12 12 11 11 11 12 11 10 9 9 9 10
47 48 48 49 52 52 52 53 53 52 52 52 52 52 52 52 51 50 49 48 48 48 48 47 46 44 42 40 39 39 39 39 38 37 35 33 31 31 30 28 27 27 27 27 27 26 26 25 24 23 21 19 18 18 17 17 17 16 15 14 14 14 14 13 11 11 11 11 12 14 16 16 15 14 14 14 13 12 12 11 9 8 8 9 9
47 48 49 51 53 53 53 54 54 54 54 53 53 52 53 53 53 52 51 50 50 50 50 49 49 47 45 43 40 40 40 39 38 37 36 34 32 31 30 29 27 26 26 27 27 27 26 25 24 23 21 20 19 18 18 18 18 17 16 15 14 15 14 13 11 11 10 11 12 14 15 16 16 16 16 16 15 13 12 12 10 9 9 10 10
46 47 50 52 53 53 53 54 55 55 54 54 54 54 54 54 54 53 52 51 51 51 51 50 49 48 47 46 44 42 41 40 40 38 37 36 34 32 31 29 28 26 26 27 28 28 27 25 25 24 21 20 19 19 19 19 19 18 16 15 15 16 15 13 11 11 10 10 11 13 15 16 16 16 16 16 15 14 14 14 13 11 11 11 11
46 49 53 54 53 53 53 54 55 55 54 54 55 55 55 55 54 54 52 52 52 52 51 50 49 49 48 47 46 44 43 42 41 40 39 37 36 34 32 30 28 27 27 27 28 28 27 26 25 24 22 21 20 20 20 20 20 19 18 17 16 16 15 13 12 11 10 10 11 14 15 16 16 17 16 15 15 15 15 15 14 13 12 12 11
46 49 52 51 51 53 54 55 56 56 57 56 55 55 55 55 55 54 54 53 53 53 52 51 50 50 49 48 48 47 45 44 42 41 40 39 37 36 35 32 30 29 28 28 28 28 27 27 26 25 23 21 21 22 21 21 21 21 19 18 17 17 16 14 13 11 10 11 12 14 16 16 17 18 17 16 16 16 16 16 15 14 13 13 13
43 46 49 49 51 54 55 56 57 57 57 57 56 55 55 55 55 54 54 54 53 53 52 52 51 51 50 49 48 47 46 45 44 42 41 40 38 37 36 34 32 31 30 29 28 28 28 28 27 27 24 23 23 23 22 22 22 22 21 20 19 19 18 16 14 13 12 13 13 14 16 17 18 19 19 19 18 18 17 17 16 15 14 14 15
43 47 49 51 53 55 56 57 58 57 57 57 56 55 55 55 55 55 55 54 53 53 53 53 52 51 51 49 48 47 46 45 44 43 43 41 39 37 36 34 33 33 32 30 29 29 28 28 28 27 26 25 24 24 23 23 23 23 23 21 21 20 19 18 16 15 14 14 15 15 16 17 18 19 20 20 19 19 18 17 17 16 15 16 16
44 46 48 51 54 54 55 57 57 57 56 56 55 55 55 56 56 56 55 54 54 54 54 53 53 52 52 51 49 48 46 46 45 45 44 42 39 37 36 34 34 35 35 33 31 30 29 28 28 28 27 26 26 25 24 24 24 24 24 23 22 22 21 19 18 17 17 16 16 16 16 17 18 19 20 20 20 19 19 18 17 16 16 16 16
44 45 47 49 52 54 54 55 55 54 53 53 54 54 55 56 57 57 56 56 55 54 54 54 53 52 52 51 50 49 47 46 46 46 45 43 41 38 37 36 34 35 36 36 34 32 30 29 29 29 28 28 28 27 26 26 25 25 25 25 24 23 22 20 19 19 19 18 18 17 17 17 18 19 20 20 20 20 19 18 17 16 16 15 15
43 44 45 46 49 52 52 51 52 53 54 54 54 55 56 57 57 57 57 57 56 55 54 53 53 53 52 51 50 49 48 47 47 47 46 45 42 40 39 38 36 34 35 36 36 34 32 31 31 31 30 29 29 28 28 28 27 26 26 25 25 25 24 22 21 20 19 19 19 18 18 18 18 20 20 21 21 20 20 19 18 17 17 16 16
41 40 41 43 45 46 47 48 50 52 54 54 54 55 56 56 56 56 58 58 57 56 55 54 54 53 52 51 50 49 49 48 48 47 46 45 42 40 40 39 37 36 35 36 36 36 35 34 33 32 32 31 30 29 29 30 28 27 26 26 26 26 25 23 21 20 19 20 20 20 19 19 19 20 21 21 21 20 20 20 20 19 19 18 17
38 38 37 38 40 43 45 48 50 52 53 54 55 56 56 56 56 57 58 58 57 56 55 55 54 53 52 52 51 50 50 49 48 47 46 44 41 40 41 40 39 37 36 36 36 37 37 36 35 35 34 32 31 30 30 31 30 29 27 27 27 27 26 25 23 21 20 20 20 21 20 20 21 21 22 22 21 21 21 21 21 20 19 19 18
35 36 37 38 40 43 46 48 50 52 53 54 56 56 55 56 56 57 57 56 56 56 55 55 54 53 53 53 52 51 51 50 48 47 45 42 40 40 41 41 39 38 37 37 37 38 39 38 37 36 35 34 32 32 31 31 30 30 28 28 27 27 27 26 24 22 21 21 21 21 21 22 22 22 23 23 22 22 21 21 21 20 18 18 18
31 34 36 38 40 43 46 47 49 51 52 54 55 55 55 55 56 56 55 55 55 55 55 55 54 54 54 54 54 52 51 50 48 46 44 41 40 40 41 41 39 37 38 38 38 39 40 39 38 37 36 35 34 34 33 31 30 30 29 28 28 27 27 27 25 24 22 22 21 21 22 22 22 23 24 24 24 23 22 21 21 20 19 19 18
27 30 34 36 39 42 45 47 49 49 51 52 53 54 55 55 56 55 54 54 54 54 54 54 54 54 55 55 54 52 51 49 47 46 44 41 40 40 41 41 39 37 38 39 40 40 40 40 39 38 38 37 36 36 35 33 32 30 29 29 28 28 28 27 26 25 24 23 22 22 22 21 22 23 24 25 24 23 22 22 22 21 21 20 19
27 29 32 34 38 40 43 46 48 49 50 51 52 53 53 54 55 54 54 54 54 54 54 55 55 56 56 55 53 52 50 49 48 47 45 42 40 40 41 41 39 38 38 40 41 41 41 41 41 40 39 39 39 39 37 35 33 31 30 29 29 29 29 28 27 26 25 24 23 22 22 21 21 23 24 25 24 24 24 24 23 22 21 21 19
28 30 32 34 37 39 42 45 47 48 49 50 51 52 53 54 54 54 55 54 53 54 54 55 56 57 56 55 53 51 51 50 49 48 46 43 42 41 41 41 39 38 38 40 41 42 42 42 41 41 41 41 41 40 38 36 34 33 31 29 29 30 30 29 27 26 26 25 24 24 23 23 23 23 24 24 24 25 25 24 23 22 22 21 19
24 27 31 33 35 38 40 43 46 47 49 50 51 52 52 53 54 54 54 54 53 54 54 55 56 56 54 53 52 52 51 50 49 48 46 45 43 42 42 41 40 39 39 40 41 43 43 43 43 43 43 42 42 41 38 36 36 34 32 30 29 30 31 30 28 27 26 24 25 26 26 25 25 25 24 24 24 25 24 24 24 23 22 21 19
23 25 27 30 33 37 39 42 45 47 49 50 50 51 52 52 53 54 54 53 53 54 55 55 55 54 53 53 53 52 51 51 50 48 47 46 44 43 43 42 42 41 40 40 42 44 45 45 44 44 44 43 42 40 38 37 37 35 33 31 29 30 32 30 28 27 25 25 28 29 28 27 27 25 23 23 25 25 24 24 24 23 22 21 19
24 24 24 25 28 31 36 40 43 46 48 50 50 51 52 53 53 53 53 53 53 54 55 55 54 53 53 53 53 52 52 51 50 49 48 47 46 45 45 44 43 42 42 42 42 44 45 46 46 46 45 44 42 40 39 38 38 37 35 32 30 31 32 29 27 27 26 27 29 29 30 30 28 24 23 23 25 26 23 23 23 23 22 21 20
23 22 22 23 23 25 30 35 40 44 47 48 49 51 51 51 51 51 52 53 53 54 54 54 54 54 53 53 53 53 52 51 50 49 49 49 48 47 45 45 44 44 45 44 44 44 45 46 47 48 47 46 44 41 40 39 39 38 36 33 31 31 31 28 27 28 28 29 30 29 30 31 28 25 23 23 24 25 24 22 21 22 22 21 20
21 20 21 21 20 20 24 30 35 40 43 44 46 48 49 49 49 50 51 52 52 53 53 53 53 53 53 53 53 53 52 51 50 50 51 51 50 49 47 46 46 46 47 46 45 45 45 46 47 48 48 48 45 43 42 41 40 38 36 34 32 31 31 29 28 30 30 31 30 30 31 32 28 25 24 22 24 24 22 21 20 20 21 21 19
18 20 20 19 17 17 18 23 30 35 38 40 42 44 46 46 47 48 50 51 51 51 52 52 52 52 52 52 53 53 52 51 50 51 51 52 52 50 49 48 47 47 47 47 47 46 46 47 47 47 48 48 46 46 45 43 41 38 36 35 33 31 31 30 29 31 31 31 31 31 33 33 30 27 25 23 23 23 21 20 19 19 20 20 19
14 16 17 17 16 15 14 16 22 28 33 36 38 41 43 44 45 47 48 49 50 51 51 52 52 52 52 52 53 53 52 52 51 51 52 52 52 51 49 49 49 49 49 49 49 48 47 47 48 48 48 48 47 47 46 44 42 39 37 36 33 31 31 30 28 28 29 31 32 33 33 33 30 30 29 25 22 22 22 21 18 18 19 19 19
8 11 14 14 14 14 12 12 14 19 25 29 34 38 40 42 44 45 46 47 49 50 51 51 50 51 51 52 52 52 52 51 51 51 52 52 52 51 50 50 50 50 50 50 50 48 47 48 48 49 48 47 46 46 46 45 43 40 38 36 33 31 32 31 29 28 28 29 30 32 32 29 27 27 28 26 23 22 22 21 19 18 19 19 19
2 2 6 9 11 11 10 9 10 13 17 22 28 33 37 40 42 43 44 46 48 50 50 49 48 49 50 50 51 50 50 50 50 50 50 51 50 50 50 51 50 50 50 50 50 49 48 48 49 49 48 46 45 45 46 46 43 40 38 35 32 31 33 33 32 31 29 27 27 29 31 29 27 25 25 25 25 24 23 21 18 18 19 19 19
10 8 5 1 4 6 5 5 6 8 10 15 21 28 33 37 39 41 43 44 45 47 47 46 46 48 49 49 49 49 50 49 50 50 50 49 49 50 50 50 50 50 50 50 50 49 49 49 49 50 48 46 44 45 47 46 43 40 38 35 32 31 31 32 31 28 28 28 26 27 29 29 27 25 24 25 25 24 22 20 18 18 19 18 18
14 14 13 11 7 3 3 5 5 5 7 10 15 22 29 33 36 40 41 41 40 42 44 45 46 47 48 48 48 48 49 49 49 50 49 49 50 50 50 50 49 49 49 49 49 49 49 49 50 50 49 46 45 45 47 46 42 39 37 35 34 30 27 29 30 27 28 30 28 27 27 26 23 22 22 23 22 21 20 19 17 17 18 18 18
13 14 15 16 15 11 6 3 4 6 7 9 12 18 23 28 33 36 37 38 39 41 43 44 45 46 46 47 47 47 48 49 49 49 49 50 50 50 49 49 48 48 48 48 48 49 50 50 50 50 49 47 45 46 47 45 42 40 37 36 35 30 26 28 29 27 30 33 31 28 27 23 19 19 20 19 19 20 20 17 16 16 17 18 19
11 12 14 15 16 16 14 9 5 3 5 8 11 15 19 25 28 29 31 35 38 40 41 41 43 44 44 46 47 47 48 49 49 49 49 49 49 49 49 49 49 48 48 48 49 50 50 51 51 50 49 47 47 48 47 45 42 40 38 37 35 28 25 28 30 28 29 32 29 27 26 22 18 18 18 18 20 21 19 17 16 17 18 19 18
10 11 12 13 13 14 14 13 11 7 4 5 8 11 15 20 24 25 28 32 34 35 37 39 41 42 42 44 46 47 48 49 49 50 50 50 50 50 50 50 50 49 49 48 49 50 51 51 50 49 49 49 49 49 46 44 42 39 38 38 34 27 25 29 31 30 29 29 27 27 26 23 19 17 18 19 21 20 18 17 18 18 19 19 17
10 10 10 11 12 13 12 11 11 9 6 3 4 7 10 15 18 21 24 27 29 32 34 36 38 40 41 42 43 46 48 49 50 50 50 51 51 51 51 51 51 52 52 51 50 51 52 53 51 50 51 51 51 49 46 43 41 39 38 37 32 27 27 30 32 32 30 28 27 28 27 23 19 18 20 22 21 19 18 18 19 20 20 18 17
9 9 9 9 10 11 10 10 9 8 6 4 1 3 6 10 13 15 17 20 23 27 30 33 35 37 38 39 41 45 47 48 49 50 51 51 52 52 53 52 52 53 54 54 53 53 54 54 53 53 53 53 51 48 46 44 42 40 39 36 30 28 29 30 30 31 29 26 27 28 27 23 21 22 24 23 21 19 19 19 20 20 19 18 16
10 10 9 7 7 7 7 8 8 6 5 4 2 1 2 5 8 10 12 14 18 22 25 28 31 34 36 37 40 43 45 47 48 49 50 51 51 52 53 53 54 55 55 55 56 56 56 56 55 54 54 53 50 49 47 45 43 42 40 35 32 32 32 30 31 31 27 25 27 28 26 24 23 24 23 21 20 20 20 21 21 20 18 17 17
11 10 9 8 7 7 6 6 6 5 5 5 5 5 5 5 6 8 9 11 14 18 22 25 28 30 32 34 37 40 42 45 47 48 49 50 51 52 54 56 57 56 56 57 57 58 58 58 57 55 53 51 48 47 47 46 45 44 41 37 35 37 36 34 33 32 28 27 29 28 26 26 26 25 23 22 22 22 22 22 21 19 18 17 17
11 10 9 8 8 8 7 6 6 5 5 5 5 7 8 8 8 9 9 9 11 15 18 22 25 27 29 30 33 35 38 41 44 47 49 51 52 53 55 57 59 58 57 57 58 58 59 59 57 55 54 53 52 48 43 42 42 40 38 36 37 38 37 35 34 33 32 31 30 29 28 28 28 27 26 25 25 24 23 23 21 20 18 18 18
12 11 10 9 9 9 9 9 9 8 7 6 6 7 8 9 10 11 11 11 11 12 14 17 20 22 24 26 28 30 34 37 41 44 47 50 52 53 55 57 58 59 59 58 58 59 58 56 56 57 56 56 56 47 37 35 37 35 33 34 34 35 35 34 34 36 35 33 31 30 29 28 29 29 28 27 26 25 24 23 22 20 19 18 18
12 12 11 12 11 11 12 13 12 11 10 9 9 8 9 9 10 11 12 13 13 13 13 14 16 17 19 21 22 24 27 31 35 40 45 48 50 53 56 58 59 59 60 59 59 59 58 55 55 57 56 53 47 37 30 32 35 34 34 34 34 34 34 34 36 37 35 32 31 31 30 29 29 29 28 27 26 26 25 23 21 20 19 18 17
Wind_Direction
208 206 207 208 209 210 209 210 210 210 211 212 212 213 213 214 215 216 216 216 216 216 216 215 215 216 216 217 219 220 220 221 222 222 221 221 221 224 227 229 232 235 240 244 248 255 258 259 258 259 262 266 270 270 267 269 271 278 285 291 295 289 279 278 275 274 263 219 202 202 210 225 244 268 282 254 205 212 199 126 52 43 39 25 16
208 207 207 208 210 210 211 211 211 212 212 213 213 214 215 215 216 218 218 218 218 217 217 217 218 218 218 220 220 221 222 223 224 223 224 224 223 226 228 230 233 235 240 243 244 250 252 254 257 259 263 266 268 267 264 266 269 275 281 290 297 289 281 282 272 260 205 181 187 195 204 221 245 260 246 201 195 205 187 173 325 48 36 24 18
208 209 208 208 210 210 211 212 213 213 213 214 215 215 217 218 218 220 220 221 221 220 219 219 220 221 223 224 224 224 225 227 228 226 226 226 225 228 229 230 233 235 239 241 240 245 250 255 260 262 265 265 266 265 264 266 270 277 283 291 294 285 281 277 259 235 195 184 190 200 213 228 231 213 192 189 199 199 183 186 216 70 39 35 33
207 208 208 208 209 209 211 213 214 214 215 216 217 217 219 220 220 220 221 223 223 223 222 222 223 225 226 228 229 229 230 231 231 230 228 227 226 228 229 231 234 236 238 239 238 241 247 256 261 263 264 264 263 263 263 266 270 276 282 289 289 283 280 269 248 231 211 201 205 215 229 235 220 199 195 201 204 199 195 199 207 188 51 48 50
207 207 207 208 208 210 211 213 214 215 216 217 217 218 218 220 220 221 222 223 224 224 224 224 224 225 227 229 230 229 230 231 231 231 229 228 227 228 230 232 236 238 237 237 237 238 244 253 259 261 262 262 262 262 264 266 269 273 278 284 284 279 275 260 241 225 216 213 216 223 234 237 228 210 206 213 219 220 210 208 216 208 122 62 64
211 210 209 208 209 210 212 213 214 215 217 217 217 218 219 220 221 222 224 224 225 224 224 224 225 225 226 227 227 227 228 230 230 230 230 230 230 230 231 234 238 238 236 236 237 239 243 248 254 258 261 262 262 262 263 264 267 271 276 280 278 272 268 252 235 221 215 217 221 227 234 243 243 223 217 221 226 227 218 214 222 217 206 207 117
213 214 212 211 210 211 212 213 214 216 217 217 218 219 220 222 222 223 224 225 225 224 223 224 225 226 227 228 228 228 230 232 233 232 233 234 235 235 235 235 237 238 236 236 237 240 242 246 251 256 260 262 261 259 260 262 267 270 272 274 269 264 263 251 234 222 221 226 231 234 237 243 249 237 231 233 233 228 219 218 224 222 223 234 232
213 214 213 213 212 212 214 215 215 216 217 217 218 220 220 220 221 222 223 225 226 225 224 224 224 226 228 230 230 231 233 235 236 236 236 237 238 239 238 237 237 237 236 235 237 239 242 244 249 253 256 259 258 256 256 260 263 265 266 266 261 258 261 252 236 230 231 237 243 244 243 245 248 248 245 246 250 246 230 225 229 227 229 234 240
214 214 214 215 214 215 217 217 217 217 217 217 218 219 220 220 220 221 222 224 225 225 225 225 225 226 227 230 232 233 235 236 238 239 239 239 239 240 240 238 238 237 234 235 237 240 243 246 248 249 252 256 256 254 254 257 258 259 261 262 261 260 261 253 240 237 240 244 249 250 250 251 252 254 255 252 254 253 242 236 236 236 237 238 240
216 217 217 217 217 218 219 219 219 219 218 218 219 219 220 221 221 222 223 224 225 226 225 226 226 226 227 229 232 234 235 236 238 239 240 240 240 240 239 239 239 239 238 238 240 242 245 248 247 246 248 252 253 251 252 255 255 255 256 258 259 258 260 256 245 242 244 246 249 250 252 256 260 261 260 255 251 248 246 249 252 248 248 250 249
218 218 219 220 220 221 220 220 221 220 219 219 219 220 221 222 223 223 224 224 226 227 227 228 227 227 228 229 231 233 234 236 236 237 238 238 239 239 239 239 240 241 242 243 245 246 247 248 246 244 245 249 249 248 251 254 252 251 253 254 255 254 256 255 247 242 244 246 246 248 252 258 264 268 265 258 252 249 249 256 262 260 259 261 258
218 218 219 220 221 222 220 221 221 220 219 219 220 221 221 222 224 225 226 226 226 228 229 229 229 230 230 231 232 233 233 235 236 237 237 237 237 238 239 240 241 242 244 245 246 246 246 246 243 239 239 243 245 245 249 252 249 247 250 252 251 249 247 244 241 240 242 245 246 249 255 258 262 265 261 255 254 255 254 256 261 261 260 264 263
217 218 218 218 219 221 220 221 222 220 220 220 220 221 222 223 224 225 227 227 227 228 229 230 230 231 232 232 233 233 233 234 236 237 237 237 237 238 239 240 242 243 244 245 245 244 243 242 238 235 236 239 242 245 247 249 248 246 248 248 244 243 241 237 236 238 241 244 246 249 253 255 258 259 255 250 250 254 255 254 258 260 261 264 264
216 217 217 218 219 220 220 221 221 221 222 222 221 222 223 224 225 226 228 229 229 229 229 230 231 231 232 233 234 234 234 234 235 237 238 239 239 238 239 241 242 244 245 246 246 243 241 239 236 234 236 239 242 244 246 246 245 245 245 244 241 239 237 233 234 239 243 245 246 247 250 254 256 257 256 253 250 251 253 253 258 265 266 264 262
215 217 218 219 220 220 220 221 221 221 222 223 223 222 223 224 226 227 228 229 229 229 230 230 231 231 232 233 234 236 236 236 236 237 239 239 240 239 239 240 241 243 245 247 247 244 241 237 235 235 237 240 242 243 243 242 242 242 242 241 238 234 232 230 232 237 242 247 247 247 249 252 254 258 260 256 251 249 251 253 258 265 266 264 264
214 215 218 220 221 220 221 221 222 222 222 223 224 224 224 225 227 228 229 230 230 230 231 231 232 232 232 233 234 235 237 237 237 238 239 240 241 241 240 239 240 241 243 245 246 243 241 237 235 237 239 241 241 241 240 238 239 240 238 238 235 230 227 226 230 237 243 247 248 245 245 249 253 258 260 257 251 249 249 252 259 265 268 270 269
214 216 218 220 220 220 221 222 222 221 221 222 225 226 226 227 227 229 230 231 231 231 232 232 233 233 233 234 234 235 236 237 238 239 239 240 242 243 242 240 239 239 239 242 244 243 240 237 236 239 242 243 240 239 237 235 237 237 236 236 235 231 227 227 230 239 247 249 247 244 242 245 250 254 258 257 253 251 250 253 260 267 272 276 277
217 218 219 219 219 220 221 222 223 222 222 224 226 228 228 228 228 229 230 231 232 233 233 233 233 234 235 235 235 236 236 237 238 240 241 242 243 244 243 240 238 236 236 238 241 241 238 237 238 240 244 243 240 238 236 234 235 236 235 234 235 233 228 227 229 236 245 250 249 246 243 244 247 251 255 256 255 254 253 255 261 267 272 276 281
217 218 219 219 219 220 221 222 223 223 223 225 227 227 226 227 229 230 232 234 234 233 233 233 234 234 236 237 237 237 237 237 238 240 241 242 243 243 243 241 237 234 234 235 236 238 238 237 238 241 243 241 238 236 235 233 233 235 236 234 234 233 228 226 227 231 239 247 250 250 248 246 246 249 253 254 255 255 255 257 261 266 271 276 282
218 218 218 219 220 221 221 222 223 223 223 225 225 224 224 226 228 230 232 234 233 233 232 233 233 234 236 237 237 238 238 238 238 239 241 242 243 243 243 241 237 234 232 232 234 236 237 237 238 241 242 240 238 236 234 232 232 234 236 235 234 233 230 227 227 229 235 242 248 251 251 251 249 250 253 254 254 254 256 259 263 267 271 276 280
221 220 219 219 220 221 221 222 223 223 223 223 223 223 224 226 227 229 231 232 233 233 233 233 233 234 235 235 236 237 238 238 238 239 241 242 243 242 242 241 237 234 231 231 232 234 236 237 238 240 241 241 239 237 234 231 231 233 235 235 235 235 232 229 229 231 233 239 246 249 250 252 253 253 254 254 254 256 258 262 266 270 273 275 277
224 223 221 220 220 221 221 221 221 221 221 222 222 223 224 224 226 228 229 230 233 234 235 234 233 233 234 235 236 237 238 238 238 239 240 241 242 242 242 242 239 235 231 230 232 233 235 236 237 238 240 240 240 237 235 233 232 233 235 235 235 235 234 231 230 230 232 237 244 248 249 249 252 255 255 254 255 257 260 264 268 273 277 277 277
229 227 223 221 221 222 221 220 219 219 220 221 222 222 224 225 226 226 227 230 233 235 235 235 233 233 234 235 236 237 238 238 238 238 239 240 241 242 243 242 241 237 233 230 231 233 235 236 237 237 238 239 239 237 235 234 234 235 236 237 236 235 236 234 232 232 233 237 241 245 248 248 250 254 256 256 257 259 262 265 268 273 278 279 278
232 229 226 223 222 221 219 219 219 219 219 220 221 223 224 225 224 225 227 231 233 233 233 233 233 233 233 234 235 236 237 237 237 237 238 240 241 242 243 243 242 240 236 232 231 232 234 236 237 237 237 237 237 236 235 234 235 236 237 238 238 238 238 238 238 238 239 240 242 245 249 250 251 254 257 257 258 260 263 265 268 272 277 278 278
234 231 228 224 221 220 219 220 219 219 219 219 220 222 223 223 224 225 228 231 231 231 231 232 232 232 232 233 234 235 236 236 237 237 238 239 240 241 242 243 242 241 238 234 232 232 233 235 236 237 237 237 236 236 235 234 235 236 237 239 239 240 241 241 242 243 244 245 246 247 250 253 254 256 258 259 260 261 264 266 268 271 273 274 275
235 233 230 225 221 221 221 221 220 220 220 219 220 221 222 223 224 226 228 229 229 229 229 230 231 231 231 233 234 235 236 236 237 237 238 239 239 239 241 242 241 241 239 236 232 231 232 234 236 237 237 237 237 237 236 235 235 236 237 238 238 239 241 242 243 245 247 249 249 250 253 256 257 259 261 261 261 262 265 268 269 270 270 270 273
238 236 233 227 222 222 223 223 222 221 221 220 220 220 221 222 224 225 227 227 228 228 228 229 230 230 231 233 234 235 236 236 237 238 239 239 238 238 239 240 240 240 239 235 232 231 232 234 236 237 237 236 236 237 237 236 235 236 236 237 237 238 239 240 242 244 247 250 252 253 256 259 261 262 263 262 261 261 264 267 268 268 268 268 272
240 236 233 228 224 224 225 225 224 222 221 221 221 221 222 223 224 225 225 227 228 228 228 228 229 230 231 232 234 235 236 236 237 238 238 238 237 238 239 239 240 239 237 234 231 230 232 234 236 237 237 236 236 237 237 236 235 235 235 236 237 238 238 239 240 242 245 249 252 254 256 258 261 263 264 263 261 261 263 266 266 266 267 268 271
248 243 237 232 229 227 227 228 225 222 221 221 221 222 222 222 224 224 224 227 228 227 228 228 228 231 232 233 234 234 235 236 236 237 237 237 236 236 238 239 239 238 237 234 232 231 232 234 236 237 237 237 236 237 236 236 235 234 234 234 236 238 239 238 238 241 244 247 252 255 252 250 253 258 262 264 263 262 263 265 267 266 265 268 272
257 254 247 240 236 233 230 229 226 222 221 221 221 221 222 222 223 223 226 226 225 226 227 227 229 231 232 231 232 233 234 234 234 235 236 235 235 235 237 238 238 238 237 235 234 232 232 233 235 237 237 237 236 236 236 235 235 235 234 234 235 237 238 238 237 239 242 247 252 254 249 246 248 253 259 262 262 262 262 264 267 266 265 269 272
266 265 258 248 242 237 232 228 227 225 223 222 222 223 223 224 223 223 226 226 225 225 227 228 230 230 229 229 231 231 232 233 234 235 235 235 234 234 235 237 238 237 237 237 236 234 233 233 235 236 237 238 237 237 236 235 235 235 235 235 235 237 238 237 236 237 240 245 249 250 248 244 244 250 255 257 257 258 260 262 264 265 267 271 270
276 274 266 255 246 240 234 231 231 229 225 223 224 224 223 224 225 226 227 225 224 225 227 229 230 228 227 229 230 230 230 232 233 233 234 234 233 234 235 236 237 237 237 238 237 235 234 234 234 236 237 238 239 238 237 236 236 235 235 234 234 237 238 236 236 237 238 241 245 247 248 246 244 248 253 252 250 253 258 261 263 267 271 270 266
280 280 275 266 256 247 240 237 235 232 229 228 227 225 226 228 229 229 226 222 223 226 227 229 228 226 228 229 229 229 230 232 233 233 233 233 233 233 234 235 236 237 237 238 238 237 236 235 235 235 237 238 239 239 238 238 237 236 236 235 233 236 237 235 234 234 234 237 242 246 249 248 245 246 251 251 249 251 256 260 263 266 268 265 263
278 282 281 277 270 257 245 240 238 236 235 231 228 228 230 230 228 226 224 222 224 226 227 228 227 227 228 228 228 229 230 231 232 232 231 232 232 232 233 234 235 236 237 238 238 238 238 237 236 236 237 239 240 240 240 240 239 238 237 236 234 236 238 235 234 235 236 238 243 246 250 251 248 243 245 250 249 248 253 259 261 262 263 262 261
270 275 277 279 278 265 249 241 239 238 235 230 227 228 228 226 224 223 223 223 224 225 226 227 226 226 227 227 227 228 229 230 231 231 231 232 232 232 232 233 234 236 237 238 239 240 240 239 238 238 239 239 240 241 242 241 241 239 237 236 234 235 238 236 234 236 238 241 246 250 252 254 252 243 240 246 248 247 254 260 259 259 260 258 257
261 266 269 273 277 274 261 247 240 237 234 231 229 228 226 224 224 224 224 224 225 225 226 226 226 227 227 227 228 227 228 229 230 230 231 231 232 232 232 233 234 235 238 239 239 240 241 241 241 241 241 241 241 242 243 242 241 240 237 235 233 233 235 237 237 238 242 245 249 252 253 255 255 247 240 243 247 248 254 260 258 256 255 254 253
257 259 261 265 271 274 272 259 246 240 238 236 233 229 226 225 224 224 224 224 225 226 226 226 227 229 229 229 229 228 228 228 229 229 231 232 232 233 233 233 233 235 236 238 238 239 241 242 243 243 242 242 242 243 243 243 242 240 236 234 233 231 230 233 236 239 242 244 245 247 249 252 254 249 241 239 243 248 252 255 254 251 249 248 249
260 258 259 262 266 268 267 264 255 247 244 241 236 231 228 226 225 225 225 224 226 228 228 228 229 232 232 231 230 229 228 228 228 230 232 232 233 233 233 233 234 235 236 238 238 239 241 242 243 244 244 244 244 245 244 243 242 239 236 234 234 232 229 228 228 228 232 239 241 238 239 244 249 246 240 237 241 249 253 250 246 244 244 245 248
48 290 270 264 264 265 265 266 265 258 249 244 238 233 229 227 227 227 226 226 228 231 231 232 234 235 233 231 230 229 230 230 232 234 235 235 235 235 234 233 234 236 237 238 239 240 241 242 244 245 245 245 245 245 245 243 242 239 236 234 233 232 230 228 228 228 231 235 233 226 228 236 243 243 239 236 241 251 253 244 235 235 240 244 248
73 69 59 6 260 251 247 251 263 265 257 248 240 233 230 229 228 227 227 229 233 236 237 238 237 235 232 232 232 232 233 235 237 238 237 237 236 234 234 234 234 236 236 237 239 240 242 243 244 245 245 245 244 245 245 244 241 239 236 233 229 229 231 232 230 228 229 231 225 219 222 229 236 239 239 238 244 249 243 230 225 231 238 243 245
73 72 71 72 79 113 186 212 222 232 242 246 241 234 230 230 228 227 230 236 239 240 239 238 236 233 232 233 235 236 238 239 239 238 236 235 235 233 232 233 234 234 235 237 239 241 242 244 245 245 245 245 244 244 244 243 240 239 236 232 227 222 225 232 230 221 219 221 217 212 213 218 225 235 238 241 245 240 226 218 223 232 238 241 242
74 70 70 73 78 85 100 159 201 208 216 227 238 238 234 230 229 232 237 240 238 236 236 235 234 233 234 236 238 240 240 240 238 236 234 234 233 232 232 233 233 233 235 237 239 241 243 244 244 243 244 244 244 243 243 241 239 238 235 233 227 218 215 225 226 218 216 218 211 201 201 206 217 230 239 243 239 226 215 215 222 228 235 239 239
78 69 67 69 73 79 83 87 99 154 195 208 224 237 239 237 238 243 246 242 238 237 237 236 235 235 236 238 240 241 241 240 237 235 234 234 234 233 232 232 232 232 234 237 239 241 241 241 241 240 241 243 243 242 241 239 238 237 234 232 229 222 216 216 213 209 215 219 208 193 190 194 206 223 237 237 227 216 212 214 219 227 235 239 238
73 65 62 62 66 70 73 76 80 90 132 187 206 221 234 241 246 250 249 246 246 246 244 242 242 241 241 242 242 242 241 240 239 236 234 233 234 234 233 232 232 232 234 237 239 240 239 239 238 237 239 241 240 240 240 239 237 235 233 231 230 226 218 207 200 200 209 212 199 186 183 186 197 216 227 222 213 209 210 215 222 231 236 236 233
64 61 57 55 59 61 61 65 70 75 87 127 189 206 221 232 239 245 246 246 248 249 249 249 249 247 246 246 245 244 243 242 240 237 234 233 233 232 231 232 233 233 234 236 238 238 238 237 236 237 240 240 239 238 239 238 236 234 231 230 228 220 209 200 194 194 198 195 185 178 178 182 192 204 207 203 201 203 210 218 227 233 234 232 230
63 63 54 50 57 60 62 63 62 64 70 75 119 215 226 231 236 243 247 246 246 246 249 253 254 254 253 250 247 246 245 243 242 240 238 237 234 232 232 234 234 234 234 234 234 234 234 234 235 237 238 237 236 236 237 236 233 229 228 228 222 206 197 195 189 185 185 181 175 174 176 179 185 190 193 195 198 204 212 221 228 231 231 230 228
63 61 54 47 48 49 53 57 55 51 49 42 26 326 264 252 253 256 254 251 248 244 244 248 252 255 256 254 252 251 248 246 243 241 240 239 237 235 234 234 234 235 234 232 231 231 231 231 232 233 233 232 232 234 234 232 228 224 222 220 209 197 192 189 182 178 181 180 175 172 173 175 179 184 190 196 202 208 216 222 225 226 227 225 223
64 61 57 52 46 42 39 39 40 35 23 6 353 339 322 299 288 282 271 262 254 248 245 244 245 247 250 251 252 253 251 250 248 245 242 240 239 238 237 236 237 237 236 233 232 231 232 232 230 228 225 223 224 228 231 230 226 221 215 206 196 191 190 184 176 177 183 182 176 171 171 175 180 185 190 197 204 209 215 219 221 222 222 220 218
61 57 57 56 52 45 38 32 29 22 7 351 335 324 316 309 304 298 288 276 262 253 249 247 245 246 247 247 248 247 247 248 248 248 248 246 245 243 241 241 243 243 242 241 239 238 239 238 233 228 224 220 220 223 228 231 228 220 209 198 191 188 186 181 177 179 184 183 179 175 176 180 185 190 194 199 204 208 212 215 218 219 218 217 218
54 52 56 61 63 59 51 44 35 23 12 356 334 316 307 304 302 300 297 292 283 273 265 260 256 254 253 253 252 250 247 245 245 246 247 248 247 245 242 241 242 243 243 244 244 244 243 239 235 233 231 229 227 226 224 227 226 215 204 201 197 189 185 183 181 183 187 189 185 179 180 185 191 194 197 200 204 207 211 214 216 216 216 218 220
57 55 56 59 62 64 61 56 47 35 24 10 355 341 330 322 317 314 313 310 306 301 296 289 284 279 274 271 268 265 260 254 249 246 245 243 243 242 240 239 239 240 239 238 239 238 236 234 235 234 229 225 226 224 216 214 213 205 200 202 198 191 188 187 183 183 188 191 187 181 180 186 193 196 199 202 205 208 212 214 214 214 215 217 220